Location: Krasnoyarskiy Pitomnik
(51.1333°N, 71.6167°E)
Time: 10:15:37
(UTC+00:00)

Cosmos 1758 - Pass Details

Date: 22 October 2021
Orbit: 540 x 560 km, 82.5° (Epoch: 07 December)

Event Time Altitude Azimuth Distance (km) Brightness Sun altitude
Rises 12:48:57 0° 197° (SSW) 2,697 7.2 -7.3°
Reaches altitude 10° 12:51:07 10° 201° (SSW) 1,807 6.4 -7.7°
Maximum altitude 12:55:03 62° 283° (WNW) 615 3.9 -8.3°
Drops below altitude 10° 12:59:01 10° 5° (N) 1,816 5.9 -8.9°
Sets 13:01:12 0° 8° (N) 2,712 6.7 -9.2°
